Time,TemperatureF,DewpointF,PressureIn,WindDirection,WindDirectionDegrees,WindSpeedMPH,WindSpeedGustMPH,Humidity,HourlyPrecipIn,Conditions,Clouds,dailyrainin,SoftwareType,DateUTC
2013-02-17 00:01:00,28.3,16.9,29.82,WNW,285,1.0,1.0,62,0.00,,,0.14,Wunderground v.1.15,2013-02-17 05:01:00,
2013-02-17 00:05:00,28.2,16.8,29.82,NE,44,2.0,2.0,62,0.00,,,0.00,Wunderground v.1.15,2013-02-17 05:05:00,
2013-02-17 00:06:00,28.3,16.9,29.82,WSW,255,2.0,2.0,62,0.00,,,0.00,Wunderground v.1.15,2013-02-17 05:06:00,
2013-02-17 00:07:00,28.2,16.8,29.82,West,270,2.0,2.0,62,0.00,,,0.00,Wunderground v.1.15,2013-02-17 05:07:00,
2013-02-17 00:13:00,28.1,16.7,29.82,WSW,253,2.0,2.0,62,0.00,,,0.00,Wunderground v.1.15,2013-02-17 05:13:00,
2013-02-17 00:18:00,28.1,16.0,29.82,NE,50,2.0,4.0,60,0.00,,,0.00,Wunderground v.1.15,2013-02-17 05:18:00,
2013-02-17 00:23:00,28.0,15.9,29.82,NE,34,2.0,2.0,60,0.00,,,0.00,Wunderground v.1.15,2013-02-17 05:23:00,
2013-02-17 00:28:00,27.9,15.8,29.81,West,273,2.0,3.0,60,0.00,,,0.00,Wunderground v.1.15,2013-02-17 05:28:00,
2013-02-17 00:34:00,27.8,15.7,29.81,WNW,295,2.0,2.0,60,0.00,,,0.00,Wunderground v.1.15,2013-02-17 05:34:00,
2013-02-17 00:40:00,27.7,15.2,29.82,SSE,152,2.0,6.0,59,0.00,,,0.00,Wunderground v.1.15,2013-02-17 05:40:00,
2013-02-17 00:45:00,27.6,15.1,29.82,WNW,283,2.0,4.0,59,0.00,,,0.00,Wunderground v.1.15,2013-02-17 05:45:00,
2013-02-17 00:51:00,27.5,15.8,29.81,WSW,248,2.0,2.0,61,0.00,,,0.00,Wunderground v.1.15,2013-02-17 05:51:00,
2013-02-17 00:56:00,27.5,15.4,29.82,NNW,335,2.0,2.0,60,0.00,,,0.00,Wunderground v.1.15,2013-02-17 05:56:00,
2013-02-17 01:02:00,27.4,15.3,29.82,WNW,282,1.0,2.0,60,0.00,,,0.00,Wunderground v.1.15,2013-02-17 06:02:00,
2013-02-17 01:07:00,27.3,15.6,29.82,West,276,1.0,8.0,61,0.00,,,0.00,Wunderground v.1.15,2013-02-17 06:07:00,
2013-02-17 01:13:00,27.3,14.8,29.82,WSW,240,2.0,2.0,59,0.00,,,0.00,Wunderground v.1.15,2013-02-17 06:13:00,
2013-02-17 01:19:00,27.2,15.1,29.82,WNW,290,1.0,2.0,60,0.00,,,0.00,Wunderground v.1.15,2013-02-17 06:19:00,
2013-02-17 01:25:00,27.2,14.8,29.82,WNW,284,1.0,2.0,59,0.00,,,0.00,Wunderground v.1.15,2013-02-17 06:25:00,
2013-02-17 01:30:00,27.1,15.0,29.82,WNW,288,2.0,3.0,60,0.00,,,0.00,Wunderground v.1.15,2013-02-17 06:30:00,
2013-02-17 01:36:00,27.1,14.3,29.82,WNW,284,3.0,3.0,58,0.00,,,0.00,Wunderground v.1.15,2013-02-17 06:36:00,
2013-02-17 01:41:00,27.1,14.7,29.82,WNW,293,3.0,4.0,59,0.00,,,0.00,Wunderground v.1.15,2013-02-17 06:41:00,
2013-02-17 01:46:00,27.0,14.6,29.82,West,281,2.0,4.0,59,0.00,,,0.00,Wunderground v.1.15,2013-02-17 06:46:00,
2013-02-17 01:52:00,27.0,14.9,29.82,WNW,284,2.0,3.0,60,0.00,,,0.00,Wunderground v.1.15,2013-02-17 06:52:00,
2013-02-17 01:59:00,26.9,14.5,29.82,WNW,295,2.0,4.0,59,0.00,,,0.00,Wunderground v.1.15,2013-02-17 06:59:00,
2013-02-17 02:04:00,26.8,14.0,29.82,WNW,288,3.0,5.0,58,0.00,,,0.00,Wunderground v.1.15,2013-02-17 07:04:00,
2013-02-17 02:10:00,26.7,14.3,29.82,West,274,2.0,5.0,59,0.00,,,0.00,Wunderground v.1.15,2013-02-17 07:10:00,
2013-02-17 02:15:00,26.6,13.4,29.82,WNW,293,2.0,7.0,57,0.00,,,0.00,Wunderground v.1.15,2013-02-17 07:15:00,
2013-02-17 02:21:00,26.6,13.8,29.82,NW,316,2.0,2.0,58,0.00,,,0.00,Wunderground v.1.15,2013-02-17 07:21:00,
2013-02-17 02:26:00,26.5,13.3,29.82,NW,321,3.0,3.0,57,0.00,,,0.00,Wunderground v.1.15,2013-02-17 07:26:00,
2013-02-17 02:32:00,26.5,13.3,29.81,WSW,242,3.0,5.0,57,0.00,,,0.00,Wunderground v.1.15,2013-02-17 07:32:00,
2013-02-17 02:37:00,26.4,13.6,29.82,NW,321,3.0,5.0,58,0.00,,,0.00,Wunderground v.1.15,2013-02-17 07:37:00,
2013-02-17 02:43:00,26.4,13.6,29.82,WNW,291,2.0,3.0,58,0.00,,,0.00,Wunderground v.1.15,2013-02-17 07:43:00,
2013-02-17 02:49:00,26.3,12.7,29.82,NNE,29,2.0,7.0,56,0.00,,,0.00,Wunderground v.1.15,2013-02-17 07:49:00,
2013-02-17 02:54:00,26.2,13.4,29.82,WNW,282,2.0,2.0,58,0.00,,,0.00,Wunderground v.1.15,2013-02-17 07:54:00,
2013-02-17 03:01:00,25.9,13.1,29.82,West,280,1.0,1.0,58,0.00,,,0.00,Wunderground v.1.15,2013-02-17 08:01:00,
2013-02-17 03:06:00,25.8,13.4,29.82,WSW,256,2.0,3.0,59,0.00,,,0.00,Wunderground v.1.15,2013-02-17 08:06:00,
2013-02-17 03:12:00,25.7,12.9,29.82,West,268,3.0,5.0,58,0.00,,,0.00,Wunderground v.1.15,2013-02-17 08:12:00,
2013-02-17 03:18:00,25.7,12.9,29.82,SW,236,3.0,5.0,58,0.00,,,0.00,Wunderground v.1.15,2013-02-17 08:18:00,
2013-02-17 03:24:00,25.6,13.2,29.81,WNW,293,3.0,4.0,59,0.00,,,0.00,Wunderground v.1.15,2013-02-17 08:24:00,
2013-02-17 03:30:00,25.5,13.1,29.81,WNW,290,3.0,4.0,59,0.00,,,0.00,Wunderground v.1.15,2013-02-17 08:30:00,
2013-02-17 03:36:00,25.4,13.1,29.82,West,268,3.0,4.0,59,0.00,,,0.00,Wunderground v.1.15,2013-02-17 08:36:00,
2013-02-17 03:42:00,25.4,12.7,29.82,WNW,291,3.0,3.0,58,0.00,,,0.00,Wunderground v.1.15,2013-02-17 08:42:00,
2013-02-17 03:48:00,25.3,13.0,29.82,WSW,247,3.0,5.0,59,0.00,,,0.00,Wunderground v.1.15,2013-02-17 08:48:00,
2013-02-17 03:53:00,25.2,12.5,29.82,WNW,284,3.0,3.0,58,0.00,,,0.00,Wunderground v.1.15,2013-02-17 08:53:00,
2013-02-17 03:59:00,25.1,12.8,29.82,West,281,4.0,5.0,59,0.00,,,0.00,Wunderground v.1.15,2013-02-17 08:59:00,
2013-02-17 04:04:00,25.0,12.7,29.82,West,281,3.0,5.0,59,0.00,,,0.00,Wunderground v.1.15,2013-02-17 09:04:00,
2013-02-17 04:09:00,24.8,12.9,29.82,WNW,287,2.0,5.0,60,0.00,,,0.00,Wunderground v.1.15,2013-02-17 09:09:00,
2013-02-17 04:16:00,24.6,13.1,29.82,West,280,2.0,2.0,61,0.00,,,0.00,Wunderground v.1.15,2013-02-17 09:16:00,
2013-02-17 04:21:00,24.4,12.9,29.82,West,278,2.0,2.0,61,0.00,,,0.00,Wunderground v.1.15,2013-02-17 09:21:00,
2013-02-17 04:26:00,24.4,12.9,29.82,WNW,287,2.0,5.0,61,0.00,,,0.00,Wunderground v.1.15,2013-02-17 09:26:00,
2013-02-17 04:32:00,24.3,13.1,29.82,WNW,284,3.0,4.0,62,0.00,,,0.00,Wunderground v.1.15,2013-02-17 09:32:00,
2013-02-17 04:37:00,24.2,13.0,29.83,WNW,285,2.0,4.0,62,0.00,,,0.00,Wunderground v.1.15,2013-02-17 09:37:00,
2013-02-17 04:43:00,24.1,13.3,29.83,WNW,294,3.0,3.0,63,0.00,,,0.00,Wunderground v.1.15,2013-02-17 09:43:00,
2013-02-17 04:49:00,24.1,13.3,29.83,WSW,248,3.0,5.0,63,0.00,,,0.00,Wunderground v.1.15,2013-02-17 09:49:00,
2013-02-17 04:55:00,24.0,13.2,29.83,WNW,285,3.0,5.0,63,0.00,,,0.00,Wunderground v.1.15,2013-02-17 09:55:00,
2013-02-17 05:01:00,24.0,13.2,29.83,West,261,3.0,7.0,63,0.00,,,0.00,Wunderground v.1.15,2013-02-17 10:01:00,
2013-02-17 05:06:00,23.9,13.1,29.83,WNW,288,3.0,7.0,63,0.00,,,0.00,Wunderground v.1.15,2013-02-17 10:06:00,
2013-02-17 05:12:00,23.9,13.1,29.83,WNW,288,3.0,4.0,63,0.00,,,0.00,Wunderground v.1.15,2013-02-17 10:12:00,
2013-02-17 05:17:00,23.8,13.0,29.83,WNW,282,3.0,8.0,63,0.00,,,0.00,Wunderground v.1.15,2013-02-17 10:17:00,
2013-02-17 05:23:00,23.8,13.4,29.83,WNW,283,3.0,4.0,64,0.00,,,0.00,Wunderground v.1.15,2013-02-17 10:23:00,
2013-02-17 05:29:00,23.7,13.3,29.83,WNW,285,3.0,4.0,64,0.00,,,0.00,Wunderground v.1.15,2013-02-17 10:29:00,
2013-02-17 05:35:00,23.6,13.2,29.83,WSW,249,3.0,5.0,64,0.00,,,0.00,Wunderground v.1.15,2013-02-17 10:35:00,
2013-02-17 05:41:00,23.5,13.1,29.83,NNE,26,3.0,3.0,64,0.00,,,0.00,Wunderground v.1.15,2013-02-17 10:41:00,
2013-02-17 05:47:00,23.5,13.1,29.83,WNW,291,3.0,6.0,64,0.00,,,0.00,Wunderground v.1.15,2013-02-17 10:47:00,
2013-02-17 05:53:00,23.5,13.1,29.83,WSW,253,3.0,4.0,64,0.00,,,0.00,Wunderground v.1.15,2013-02-17 10:53:00,
2013-02-17 05:58:00,23.5,13.1,29.84,West,274,4.0,5.0,64,0.00,,,0.00,Wunderground v.1.15,2013-02-17 10:58:00,
2013-02-17 06:04:00,23.4,13.4,29.84,WNW,300,3.0,8.0,65,0.00,,,0.00,Wunderground v.1.15,2013-02-17 11:04:00,
2013-02-17 06:10:00,23.4,13.4,29.84,West,260,3.0,8.0,65,0.00,,,0.00,Wunderground v.1.15,2013-02-17 11:10:00,
2013-02-17 06:15:00,23.4,13.4,29.84,SW,236,4.0,6.0,65,0.00,,,0.00,Wunderground v.1.15,2013-02-17 11:15:00,
2013-02-17 06:20:00,23.4,13.4,29.83,West,279,4.0,7.0,65,0.00,,,0.00,Wunderground v.1.15,2013-02-17 11:20:00,
2013-02-17 06:26:00,23.2,13.5,29.84,WNW,291,3.0,4.0,66,0.00,,,0.00,Wunderground v.1.15,2013-02-17 11:26:00,
2013-02-17 06:31:00,23.1,13.4,29.84,NW,317,3.0,3.0,66,0.00,,,0.00,Wunderground v.1.15,2013-02-17 11:31:00,
2013-02-17 06:36:00,23.0,13.7,29.84,West,279,3.0,4.0,67,0.00,,,0.00,Wunderground v.1.15,2013-02-17 11:36:00,
2013-02-17 06:42:00,22.9,13.6,29.84,West,269,3.0,4.0,67,0.00,,,0.00,Wunderground v.1.15,2013-02-17 11:42:00,
2013-02-17 06:48:00,22.7,13.4,29.84,West,281,2.0,4.0,67,0.00,,,0.00,Wunderground v.1.15,2013-02-17 11:48:00,
2013-02-17 06:53:00,22.7,13.4,29.84,WNW,287,3.0,10.0,67,0.00,,,0.00,Wunderground v.1.15,2013-02-17 11:53:00,
2013-02-17 06:58:00,22.8,13.5,29.84,SW,236,4.0,10.0,67,0.00,,,0.00,Wunderground v.1.15,2013-02-17 11:58:00,
2013-02-17 07:04:00,22.8,13.5,29.84,West,281,4.0,4.0,67,0.00,,,0.00,Wunderground v.1.15,2013-02-17 12:04:00,
2013-02-17 07:09:00,22.7,13.7,29.84,NNW,337,3.0,6.0,68,0.00,,,0.00,Wunderground v.1.15,2013-02-17 12:09:00,
2013-02-17 07:16:00,22.7,13.7,29.84,WNW,283,3.0,4.0,68,0.00,,,0.00,Wunderground v.1.15,2013-02-17 12:16:00,
2013-02-17 07:21:00,22.8,14.1,29.84,NW,304,4.0,4.0,69,0.00,,,0.00,Wunderground v.1.15,2013-02-17 12:21:00,
2013-02-17 07:26:00,22.8,13.8,29.84,West,269,4.0,7.0,68,0.00,,,0.00,Wunderground v.1.15,2013-02-17 12:26:00,
2013-02-17 07:31:00,23.1,14.1,29.84,WNW,293,4.0,6.0,68,0.00,,,0.00,Wunderground v.1.15,2013-02-17 12:31:00,
2013-02-17 07:37:00,23.3,14.3,29.85,WNW,293,4.0,6.0,68,0.00,,,0.00,Wunderground v.1.15,2013-02-17 12:37:00,
2013-02-17 07:43:00,23.5,14.5,29.85,WSW,257,3.0,4.0,68,0.00,,,0.00,Wunderground v.1.15,2013-02-17 12:43:00,
2013-02-17 07:48:00,23.6,14.2,29.85,WNW,298,3.0,6.0,67,0.00,,,0.00,Wunderground v.1.15,2013-02-17 12:48:00,
2013-02-17 07:54:00,23.7,13.6,29.85,SSW,200,4.0,11.0,65,0.00,,,0.00,Wunderground v.1.15,2013-02-17 12:54:00,
2013-02-17 08:01:00,23.9,13.5,29.85,WSW,255,5.0,5.0,64,0.00,,,0.00,Wunderground v.1.15,2013-02-17 13:01:00,
2013-02-17 08:06:00,24.0,13.6,29.85,WNW,290,4.0,6.0,64,0.00,,,0.00,Wunderground v.1.15,2013-02-17 13:06:00,
2013-02-17 08:12:00,24.1,12.6,29.85,WNW,299,5.0,5.0,61,0.00,,,0.00,Wunderground v.1.15,2013-02-17 13:12:00,
2013-02-17 08:18:00,24.2,12.3,29.86,WNW,290,5.0,8.0,60,0.00,,,0.00,Wunderground v.1.15,2013-02-17 13:18:00,
2013-02-17 08:24:00,24.4,12.9,29.85,WNW,282,5.0,5.0,61,0.00,,,0.00,Wunderground v.1.15,2013-02-17 13:24:00,
2013-02-17 08:29:00,24.5,12.2,29.86,WNW,288,5.0,7.0,59,0.00,,,0.00,Wunderground v.1.15,2013-02-17 13:29:00,
2013-02-17 08:34:00,24.6,11.5,29.86,NW,312,5.0,8.0,57,0.00,,,0.00,Wunderground v.1.15,2013-02-17 13:34:00,
2013-02-17 08:39:00,24.7,12.0,29.86,West,277,5.0,8.0,58,0.00,,,0.00,Wunderground v.1.15,2013-02-17 13:39:00,
2013-02-17 08:46:00,24.8,11.7,29.86,West,281,5.0,9.0,57,0.00,,,0.00,Wunderground v.1.15,2013-02-17 13:46:00,
2013-02-17 08:51:00,24.9,11.4,29.85,SW,226,6.0,6.0,56,0.00,,,0.00,Wunderground v.1.15,2013-02-17 13:51:00,
2013-02-17 08:56:00,24.8,11.3,29.85,WSW,253,6.0,11.0,56,0.00,,,0.00,Wunderground v.1.15,2013-02-17 13:56:00,
2013-02-17 09:02:00,25.0,11.9,29.86,West,269,6.0,7.0,57,0.00,,,0.00,Wunderground v.1.15,2013-02-17 14:02:00,
2013-02-17 09:08:00,25.2,12.1,29.86,WSW,245,6.0,7.0,57,0.00,,,0.00,Wunderground v.1.15,2013-02-17 14:08:00,
2013-02-17 09:13:00,25.3,11.8,29.86,WNW,300,6.0,8.0,56,0.00,,,0.00,Wunderground v.1.15,2013-02-17 14:13:00,
2013-02-17 09:19:00,25.6,12.5,29.86,WSW,255,6.0,8.0,57,0.00,,,0.00,Wunderground v.1.15,2013-02-17 14:19:00,
2013-02-17 09:24:00,25.9,12.3,29.86,WNW,298,5.0,9.0,56,0.00,,,0.00,Wunderground v.1.15,2013-02-17 14:24:00,
2013-02-17 09:31:00,26.1,12.9,29.86,SW,217,5.0,5.0,57,0.00,,,0.00,Wunderground v.1.15,2013-02-17 14:31:00,
2013-02-17 09:36:00,26.1,12.5,29.86,WNW,302,6.0,14.0,56,0.00,,,0.00,Wunderground v.1.15,2013-02-17 14:36:00,
2013-02-17 09:41:00,26.2,12.6,29.86,WNW,283,6.0,6.0,56,0.00,,,0.00,Wunderground v.1.15,2013-02-17 14:41:00,
2013-02-17 09:47:00,26.3,12.7,29.86,North,356,6.0,9.0,56,0.00,,,0.00,Wunderground v.1.15,2013-02-17 14:47:00,
2013-02-17 09:52:00,26.4,12.8,29.87,WNW,298,6.0,8.0,56,0.00,,,0.00,Wunderground v.1.15,2013-02-17 14:52:00,
2013-02-17 09:58:00,26.3,12.7,29.87,WNW,283,7.0,8.0,56,0.00,,,0.00,Wunderground v.1.15,2013-02-17 14:58:00,
2013-02-17 10:03:00,26.5,12.5,29.87,WNW,289,6.0,10.0,55,0.00,,,0.00,Wunderground v.1.15,2013-02-17 15:03:00,
2013-02-17 10:09:00,26.6,12.6,29.87,West,273,7.0,10.0,55,0.00,,,0.00,Wunderground v.1.15,2013-02-17 15:09:00,
2013-02-17 10:14:00,26.5,12.9,29.87,West,265,7.0,8.0,56,0.00,,,0.00,Wunderground v.1.15,2013-02-17 15:14:00,
2013-02-17 10:20:00,26.2,12.6,29.88,SW,228,6.0,11.0,56,0.00,,,0.00,Wunderground v.1.15,2013-02-17 15:20:00,
2013-02-17 10:25:00,26.1,12.5,29.88,West,266,7.0,13.0,56,0.00,,,0.00,Wunderground v.1.15,2013-02-17 15:25:00,
2013-02-17 10:30:00,26.2,12.2,29.88,WSW,256,8.0,13.0,55,0.00,,,0.00,Wunderground v.1.15,2013-02-17 15:30:00,
2013-02-17 10:36:00,26.1,12.1,29.88,SW,236,7.0,8.0,55,0.00,,,0.00,Wunderground v.1.15,2013-02-17 15:36:00,
2013-02-17 10:42:00,26.1,12.1,29.89,West,274,6.0,8.0,55,0.00,,,0.00,Wunderground v.1.15,2013-02-17 15:42:00,
2013-02-17 10:48:00,26.2,13.0,29.89,NW,311,5.0,8.0,57,0.00,,,0.00,Wunderground v.1.15,2013-02-17 15:48:00,
2013-02-17 10:54:00,26.3,13.1,29.89,SW,220,4.0,5.0,57,0.00,,,0.00,Wunderground v.1.15,2013-02-17 15:54:00,
2013-02-17 10:59:00,26.3,11.9,29.89,SW,236,5.0,9.0,54,0.00,,,0.00,Wunderground v.1.15,2013-02-17 15:59:00,
2013-02-17 11:05:00,26.8,11.9,29.89,NW,320,6.0,10.0,53,0.00,,,0.00,Wunderground v.1.15,2013-02-17 16:05:00,
2013-02-17 11:10:00,27.2,12.3,29.89,WNW,290,7.0,11.0,53,0.00,,,0.00,Wunderground v.1.15,2013-02-17 16:10:00,
2013-02-17 11:15:00,27.2,11.4,29.89,West,265,7.0,8.0,51,0.00,,,0.00,Wunderground v.1.15,2013-02-17 16:15:00,
2013-02-17 11:21:00,27.1,13.1,29.89,WNW,301,5.0,5.0,55,0.00,,,0.00,Wunderground v.1.15,2013-02-17 16:21:00,
2013-02-17 11:27:00,26.8,12.4,29.89,NW,309,5.0,9.0,54,0.00,,,0.00,Wunderground v.1.15,2013-02-17 16:27:00,
2013-02-17 11:33:00,26.9,12.5,29.89,WNW,290,5.0,8.0,54,0.00,,,0.00,Wunderground v.1.15,2013-02-17 16:33:00,
2013-02-17 11:38:00,27.2,12.7,29.89,West,276,5.0,8.0,54,0.00,,,0.00,Wunderground v.1.15,2013-02-17 16:38:00,
2013-02-17 11:44:00,27.7,13.2,29.89,ENE,67,6.0,6.0,54,0.00,,,0.00,Wunderground v.1.15,2013-02-17 16:44:00,
2013-02-17 11:49:00,27.7,12.3,29.89,West,270,6.0,7.0,52,0.00,,,0.00,Wunderground v.1.15,2013-02-17 16:49:00,
2013-02-17 11:54:00,27.5,12.2,29.89,NW,304,6.0,8.0,52,0.00,,,0.00,Wunderground v.1.15,2013-02-17 16:54:00,
2013-02-17 12:01:00,27.3,12.8,29.89,WSW,242,6.0,7.0,54,0.00,,,0.00,Wunderground v.1.15,2013-02-17 17:01:00,
2013-02-17 12:06:00,27.3,13.2,29.89,WNW,284,6.0,8.0,55,0.00,,,0.00,Wunderground v.1.15,2013-02-17 17:06:00,
2013-02-17 12:11:00,28.1,14.0,29.89,WNW,296,5.0,5.0,55,0.00,,,0.00,Wunderground v.1.15,2013-02-17 17:11:00,
2013-02-17 12:17:00,29.0,14.0,29.88,NW,317,4.0,7.0,53,0.00,,,0.00,Wunderground v.1.15,2013-02-17 17:17:00,
2013-02-17 12:22:00,28.9,13.0,29.89,West,278,5.0,6.0,51,0.00,,,0.00,Wunderground v.1.15,2013-02-17 17:22:00,
2013-02-17 12:28:00,28.3,11.6,29.88,NW,316,6.0,12.0,49,0.00,,,0.00,Wunderground v.1.15,2013-02-17 17:28:00,
2013-02-17 12:34:00,28.1,10.9,29.88,WSW,241,7.0,8.0,48,0.00,,,0.00,Wunderground v.1.15,2013-02-17 17:34:00,
2013-02-17 12:39:00,28.5,11.3,29.89,WNW,288,7.0,8.0,48,0.00,,,0.00,Wunderground v.1.15,2013-02-17 17:39:00,
2013-02-17 12:45:00,28.1,11.8,29.89,West,281,6.0,11.0,50,0.00,,,0.00,Wunderground v.1.15,2013-02-17 17:45:00,
2013-02-17 12:51:00,28.0,12.6,29.89,West,281,5.0,5.0,52,0.00,,,0.00,Wunderground v.1.15,2013-02-17 17:51:00,
2013-02-17 12:57:00,27.5,11.3,29.89,NNW,330,7.0,13.0,50,0.00,,,0.00,Wunderground v.1.15,2013-02-17 17:57:00,
2013-02-17 13:02:00,28.5,14.4,29.88,SW,217,7.0,7.0,55,0.00,,,0.00,Wunderground v.1.15,2013-02-17 18:02:00,
2013-02-17 13:09:00,29.1,12.8,29.88,West,274,6.0,9.0,50,0.00,,,0.00,Wunderground v.1.15,2013-02-17 18:09:00,
2013-02-17 13:14:00,28.6,13.6,29.89,WNW,283,6.0,8.0,53,0.00,,,0.00,Wunderground v.1.15,2013-02-17 18:14:00,
2013-02-17 13:19:00,29.1,14.1,29.88,WNW,288,6.0,11.0,53,0.00,,,0.00,Wunderground v.1.15,2013-02-17 18:19:00,
2013-02-17 13:24:00,28.6,11.8,29.89,SW,235,6.0,6.0,49,0.00,,,0.00,Wunderground v.1.15,2013-02-17 18:24:00,
2013-02-17 13:30:00,27.5,13.8,29.89,NNW,336,8.0,15.0,56,0.00,,,0.00,Wunderground v.1.15,2013-02-17 18:30:00,
2013-02-17 13:35:00,26.5,14.5,29.89,WSW,257,8.0,15.0,60,0.00,,,0.00,Wunderground v.1.15,2013-02-17 18:35:00,
2013-02-17 13:41:00,26.0,18.5,29.89,West,276,8.0,8.0,73,0.00,,,0.00,Wunderground v.1.15,2013-02-17 18:41:00,
2013-02-17 13:47:00,26.2,17.4,29.89,WNW,302,6.0,9.0,69,0.00,,,0.00,Wunderground v.1.15,2013-02-17 18:47:00,
2013-02-17 13:52:00,27.3,17.4,29.89,West,281,5.0,5.0,66,0.00,,,0.00,Wunderground v.1.15,2013-02-17 18:52:00,
2013-02-17 13:58:00,28.3,17.3,29.89,NNE,22,4.0,8.0,63,0.00,,,0.00,Wunderground v.1.15,2013-02-17 18:58:00,
2013-02-17 14:04:00,28.9,16.7,29.89,WNW,295,5.0,5.0,60,0.00,,,0.00,Wunderground v.1.15,2013-02-17 19:04:00,
2013-02-17 14:10:00,28.5,14.8,29.89,West,274,5.0,9.0,56,0.00,,,0.00,Wunderground v.1.15,2013-02-17 19:10:00,
2013-02-17 14:15:00,27.6,16.6,29.90,West,278,7.0,11.0,63,0.00,,,0.00,Wunderground v.1.15,2013-02-17 19:15:00,
2013-02-17 14:21:00,26.8,18.0,29.89,WNW,289,7.0,7.0,69,0.00,,,0.00,Wunderground v.1.15,2013-02-17 19:21:00,
2013-02-17 14:27:00,27.7,16.7,29.89,NNE,12,6.0,7.0,63,0.00,,,0.00,Wunderground v.1.15,2013-02-17 19:27:00,
2013-02-17 14:33:00,28.3,14.6,29.89,West,278,6.0,6.0,56,0.00,,,0.00,Wunderground v.1.15,2013-02-17 19:33:00,
2013-02-17 14:39:00,28.5,13.9,29.89,WNW,288,6.0,7.0,54,0.00,,,0.00,Wunderground v.1.15,2013-02-17 19:39:00,
2013-02-17 14:44:00,27.9,13.4,29.89,WNW,294,5.0,11.0,54,0.00,,,0.00,Wunderground v.1.15,2013-02-17 19:44:00,
2013-02-17 14:50:00,27.0,16.1,29.90,WNW,283,8.0,17.0,63,0.00,,,0.00,Wunderground v.1.15,2013-02-17 19:50:00,
2013-02-17 14:55:00,25.8,17.7,29.90,North,1,8.0,8.0,71,0.00,,,0.00,Wunderground v.1.15,2013-02-17 19:55:00,
2013-02-17 15:01:00,25.4,16.3,29.90,WNW,292,7.0,7.0,68,0.00,,,0.00,Wunderground v.1.15,2013-02-17 20:01:00,
2013-02-17 15:06:00,25.5,15.7,29.90,WNW,301,7.0,11.0,66,0.00,,,0.00,Wunderground v.1.15,2013-02-17 20:06:00,
2013-02-17 15:12:00,25.6,15.1,29.91,WSW,250,7.0,14.0,64,0.00,,,0.00,Wunderground v.1.15,2013-02-17 20:12:00,
2013-02-17 15:18:00,25.5,13.9,29.91,West,278,8.0,14.0,61,0.00,,,0.00,Wunderground v.1.15,2013-02-17 20:18:00,
2013-02-17 15:23:00,25.8,13.0,29.90,West,280,9.0,11.0,58,0.00,,,0.00,Wunderground v.1.15,2013-02-17 20:23:00,
2013-02-17 15:28:00,26.5,11.2,29.90,West,278,9.0,12.0,52,0.00,,,0.00,Wunderground v.1.15,2013-02-17 20:28:00,
2013-02-17 15:34:00,27.3,11.1,29.90,SW,221,8.0,15.0,50,0.00,,,0.00,Wunderground v.1.15,2013-02-17 20:34:00,
2013-02-17 15:40:00,27.1,9.5,29.91,West,260,9.0,15.0,47,0.00,,,0.00,Wunderground v.1.15,2013-02-17 20:40:00,
2013-02-17 15:45:00,26.6,9.5,29.91,WSW,249,9.0,11.0,48,0.00,,,0.00,Wunderground v.1.15,2013-02-17 20:45:00,
2013-02-17 15:51:00,26.1,11.3,29.91,West,269,9.0,12.0,53,0.00,,,0.00,Wunderground v.1.15,2013-02-17 20:51:00,
2013-02-17 15:57:00,25.5,14.6,29.91,WNW,290,9.0,12.0,63,0.00,,,0.00,Wunderground v.1.15,2013-02-17 20:57:00,
2013-02-17 16:02:00,26.1,11.3,29.92,NW,312,9.0,9.0,53,0.00,,,0.00,Wunderground v.1.15,2013-02-17 21:02:00,
2013-02-17 16:08:00,26.9,9.8,29.91,West,277,10.0,21.0,48,0.00,,,0.00,Wunderground v.1.15,2013-02-17 21:08:00,
2013-02-17 16:13:00,26.8,7.8,29.91,NNW,347,10.0,10.0,44,0.00,,,0.00,Wunderground v.1.15,2013-02-17 21:13:00,
2013-02-17 16:19:00,26.8,8.3,29.92,WNW,282,10.0,13.0,45,0.00,,,0.00,Wunderground v.1.15,2013-02-17 21:19:00,
2013-02-17 16:24:00,27.0,7.4,29.92,WNW,296,9.0,11.0,43,0.00,,,0.00,Wunderground v.1.15,2013-02-17 21:24:00,
2013-02-17 16:31:00,27.1,6.5,29.92,WNW,288,8.0,8.0,41,0.00,,,0.00,Wunderground v.1.15,2013-02-17 21:31:00,
2013-02-17 16:36:00,27.1,7.0,29.92,WNW,288,7.0,8.0,42,0.00,,,0.00,Wunderground v.1.15,2013-02-17 21:36:00,
2013-02-17 16:41:00,27.1,6.5,29.92,WNW,285,6.0,7.0,41,0.00,,,0.00,Wunderground v.1.15,2013-02-17 21:41:00,
2013-02-17 16:47:00,27.0,6.4,29.93,WNW,297,6.0,7.0,41,0.00,,,0.00,Wunderground v.1.15,2013-02-17 21:47:00,
2013-02-17 16:52:00,26.9,6.8,29.93,West,276,7.0,10.0,42,0.00,,,0.00,Wunderground v.1.15,2013-02-17 21:52:00,
2013-02-17 16:58:00,26.6,8.1,29.93,WNW,297,9.0,13.0,45,0.00,,,0.00,Wunderground v.1.15,2013-02-17 21:58:00,
2013-02-17 17:04:00,26.5,8.5,29.94,SSW,207,7.0,8.0,46,0.00,,,0.00,Wunderground v.1.15,2013-02-17 22:04:00,
2013-02-17 17:09:00,26.4,7.9,29.94,West,269,7.0,12.0,45,0.00,,,0.00,Wunderground v.1.15,2013-02-17 22:09:00,
2013-02-17 17:14:00,26.4,6.9,29.94,WNW,283,7.0,11.0,43,0.00,,,0.00,Wunderground v.1.15,2013-02-17 22:14:00,
2013-02-17 17:20:00,26.4,6.4,29.94,West,271,7.0,11.0,42,0.00,,,0.00,Wunderground v.1.15,2013-02-17 22:20:00,
2013-02-17 17:26:00,26.3,6.3,29.95,NNE,29,8.0,9.0,42,0.00,,,0.00,Wunderground v.1.15,2013-02-17 22:26:00,
2013-02-17 17:31:00,26.2,6.7,29.95,WNW,300,7.0,7.0,43,0.00,,,0.00,Wunderground v.1.15,2013-02-17 22:31:00,
2013-02-17 17:37:00,26.1,8.1,29.96,WNW,285,8.0,11.0,46,0.00,,,0.00,Wunderground v.1.15,2013-02-17 22:37:00,
2013-02-17 17:43:00,25.9,8.4,29.96,WNW,287,8.0,11.0,47,0.00,,,0.00,Wunderground v.1.15,2013-02-17 22:43:00,
2013-02-17 17:49:00,25.5,9.9,29.97,WNW,287,8.0,11.0,51,0.00,,,0.00,Wunderground v.1.15,2013-02-17 22:49:00,
2013-02-17 17:54:00,25.3,10.1,29.97,West,280,7.0,9.0,52,0.00,,,0.00,Wunderground v.1.15,2013-02-17 22:54:00,
2013-02-17 17:59:00,25.1,9.5,29.98,WNW,283,7.0,9.0,51,0.00,,,0.00,Wunderground v.1.15,2013-02-17 22:59:00,
2013-02-17 18:04:00,25.0,10.7,29.98,WNW,300,7.0,7.0,54,0.00,,,0.00,Wunderground v.1.15,2013-02-17 23:04:00,
2013-02-17 18:11:00,24.6,11.9,29.99,WNW,283,8.0,10.0,58,0.00,,,0.00,Wunderground v.1.15,2013-02-17 23:11:00,
2013-02-17 18:17:00,24.4,12.1,29.99,West,281,7.0,10.0,59,0.00,,,0.00,Wunderground v.1.15,2013-02-17 23:17:00,
2013-02-17 18:23:00,24.4,11.3,29.99,NNW,340,7.0,8.0,57,0.00,,,0.00,Wunderground v.1.15,2013-02-17 23:23:00,
2013-02-17 18:29:00,24.4,10.5,29.99,WNW,285,6.0,11.0,55,0.00,,,0.00,Wunderground v.1.15,2013-02-17 23:29:00,
2013-02-17 18:34:00,24.3,9.2,30.00,North,357,6.0,12.0,52,0.00,,,0.00,Wunderground v.1.15,2013-02-17 23:34:00,
2013-02-17 18:39:00,24.3,8.7,30.00,West,274,7.0,12.0,51,0.00,,,0.00,Wunderground v.1.15,2013-02-17 23:39:00,
2013-02-17 18:46:00,24.2,9.5,30.00,West,277,7.0,8.0,53,0.00,,,0.00,Wunderground v.1.15,2013-02-17 23:46:00,
2013-02-17 18:51:00,24.1,9.0,30.01,WNW,284,7.0,12.0,52,0.00,,,0.00,Wunderground v.1.15,2013-02-17 23:51:00,
2013-02-17 18:56:00,24.1,8.1,30.01,WNW,292,7.0,10.0,50,0.00,,,0.00,Wunderground v.1.15,2013-02-17 23:56:00,
2013-02-17 19:02:00,24.0,8.5,30.01,WNW,297,7.0,7.0,51,0.00,,,0.00,Wunderground v.1.15,2013-02-18 00:02:00,
2013-02-17 19:08:00,23.8,9.6,30.01,WNW,294,6.0,12.0,54,0.00,,,0.00,Wunderground v.1.15,2013-02-18 00:08:00,
2013-02-17 19:13:00,23.6,9.8,30.02,WNW,285,6.0,8.0,55,0.00,,,0.00,Wunderground v.1.15,2013-02-18 00:13:00,
2013-02-17 19:18:00,23.5,9.7,30.02,NNW,340,6.0,12.0,55,0.00,,,0.00,Wunderground v.1.15,2013-02-18 00:18:00,
2013-02-17 19:24:00,23.5,9.3,30.02,West,263,8.0,17.0,54,0.00,,,0.00,Wunderground v.1.15,2013-02-18 00:24:00,
2013-02-17 19:30:00,23.5,8.9,30.02,West,269,8.0,17.0,53,0.00,,,0.00,Wunderground v.1.15,2013-02-18 00:30:00,
2013-02-17 19:36:00,23.5,8.4,30.02,West,281,8.0,11.0,52,0.00,,,0.00,Wunderground v.1.15,2013-02-18 00:36:00,
2013-02-17 19:42:00,23.5,8.4,30.02,WNW,300,9.0,10.0,52,0.00,,,0.00,Wunderground v.1.15,2013-02-18 00:42:00,
2013-02-17 19:47:00,23.5,8.4,30.03,WNW,291,8.0,10.0,52,0.00,,,0.00,Wunderground v.1.15,2013-02-18 00:47:00,
2013-02-17 19:54:00,23.4,8.8,30.03,NNW,333,7.0,8.0,53,0.00,,,0.00,Wunderground v.1.15,2013-02-18 00:54:00,
2013-02-17 19:59:00,23.3,8.7,30.03,West,277,6.0,8.0,53,0.00,,,0.00,Wunderground v.1.15,2013-02-18 00:59:00,
2013-02-17 20:04:00,23.2,8.2,30.03,WNW,302,7.0,10.0,52,0.00,,,0.00,Wunderground v.1.15,2013-02-18 01:04:00,
2013-02-17 20:10:00,23.2,8.6,30.04,West,270,8.0,10.0,53,0.00,,,0.00,Wunderground v.1.15,2013-02-18 01:10:00,
2013-02-17 20:15:00,23.1,8.5,30.05,WNW,286,8.0,13.0,53,0.00,,,0.00,Wunderground v.1.15,2013-02-18 01:15:00,
2013-02-17 20:20:00,23.1,8.9,30.05,West,281,7.0,13.0,54,0.00,,,0.00,Wunderground v.1.15,2013-02-18 01:20:00,
2013-02-17 20:26:00,23.0,8.8,30.05,WSW,248,7.0,8.0,54,0.00,,,0.00,Wunderground v.1.15,2013-02-18 01:26:00,
2013-02-17 20:31:00,22.9,9.1,30.06,NW,315,7.0,7.0,55,0.00,,,0.00,Wunderground v.1.15,2013-02-18 01:31:00,
2013-02-17 20:37:00,22.8,8.6,30.06,WNW,294,7.0,11.0,54,0.00,,,0.00,Wunderground v.1.15,2013-02-18 01:37:00,
2013-02-17 20:44:00,22.8,8.6,30.06,West,276,8.0,11.0,54,0.00,,,0.00,Wunderground v.1.15,2013-02-18 01:44:00,
2013-02-17 20:49:00,22.9,8.7,30.07,WNW,291,8.0,11.0,54,0.00,,,0.00,Wunderground v.1.15,2013-02-18 01:49:00,
2013-02-17 20:55:00,22.8,8.2,30.07,West,277,8.0,10.0,53,0.00,,,0.00,Wunderground v.1.15,2013-02-18 01:55:00,
2013-02-17 21:01:00,22.8,7.4,30.08,West,281,9.0,12.0,51,0.00,,,0.00,Wunderground v.1.15,2013-02-18 02:01:00,
2013-02-17 21:06:00,22.8,6.9,30.08,WNW,298,8.0,12.0,50,0.00,,,0.00,Wunderground v.1.15,2013-02-18 02:06:00,
2013-02-17 21:11:00,22.8,7.4,30.08,West,278,8.0,8.0,51,0.00,,,0.00,Wunderground v.1.15,2013-02-18 02:11:00,
2013-02-17 21:17:00,22.7,8.1,30.09,West,278,6.0,8.0,53,0.00,,,0.00,Wunderground v.1.15,2013-02-18 02:17:00,
2013-02-17 21:23:00,22.6,8.0,30.09,SSE,150,5.0,6.0,53,0.00,,,0.00,Wunderground v.1.15,2013-02-18 02:23:00,
2013-02-17 21:29:00,22.4,5.2,30.09,NNE,20,5.0,14.0,47,0.00,,,0.00,Wunderground v.1.15,2013-02-18 02:29:00,
2013-02-17 21:35:00,22.4,6.1,30.10,WNW,284,6.0,12.0,49,0.00,,,0.00,Wunderground v.1.15,2013-02-18 02:35:00,
2013-02-17 21:41:00,22.3,7.7,30.10,SW,224,6.0,6.0,53,0.00,,,0.00,Wunderground v.1.15,2013-02-18 02:41:00,
2013-02-17 21:46:00,22.2,7.2,30.10,West,260,5.0,7.0,52,0.00,,,0.00,Wunderground v.1.15,2013-02-18 02:46:00,
2013-02-17 21:52:00,22.1,6.7,30.10,WNW,300,4.0,5.0,51,0.00,,,0.00,Wunderground v.1.15,2013-02-18 02:52:00,
2013-02-17 21:58:00,21.9,7.4,30.11,West,273,5.0,8.0,53,0.00,,,0.00,Wunderground v.1.15,2013-02-18 02:58:00,
2013-02-17 22:04:00,21.9,8.2,30.11,West,281,5.0,5.0,55,0.00,,,0.00,Wunderground v.1.15,2013-02-18 03:04:00,
2013-02-17 22:10:00,21.7,7.6,30.11,WSW,250,6.0,7.0,54,0.00,,,0.00,Wunderground v.1.15,2013-02-18 03:10:00,
2013-02-17 22:15:00,21.7,7.2,30.12,NW,307,6.0,7.0,53,0.00,,,0.00,Wunderground v.1.15,2013-02-18 03:15:00,
2013-02-17 22:21:00,21.6,6.2,30.12,NNE,26,6.0,8.0,51,0.00,,,0.00,Wunderground v.1.15,2013-02-18 03:21:00,
2013-02-17 22:26:00,21.5,6.1,30.12,WNW,293,7.0,8.0,51,0.00,,,0.00,Wunderground v.1.15,2013-02-18 03:26:00,
2013-02-17 22:32:00,21.3,6.0,30.12,West,281,6.0,7.0,51,0.00,,,0.00,Wunderground v.1.15,2013-02-18 03:32:00,
2013-02-17 22:37:00,21.2,5.9,30.13,WNW,285,6.0,15.0,51,0.00,,,0.00,Wunderground v.1.15,2013-02-18 03:37:00,
2013-02-17 22:43:00,21.1,5.8,30.13,NNE,22,7.0,9.0,51,0.00,,,0.00,Wunderground v.1.15,2013-02-18 03:43:00,
2013-02-17 22:49:00,21.0,5.7,30.13,WSW,246,7.0,12.0,51,0.00,,,0.00,Wunderground v.1.15,2013-02-18 03:49:00,
2013-02-17 22:54:00,20.9,5.6,30.13,West,273,7.0,12.0,51,0.00,,,0.00,Wunderground v.1.15,2013-02-18 03:54:00,
2013-02-17 23:01:00,20.8,5.1,30.13,West,259,8.0,11.0,50,0.00,,,0.00,Wunderground v.1.15,2013-02-18 04:01:00,
2013-02-17 23:06:00,20.7,5.0,30.13,West,278,8.0,13.0,50,0.00,,,0.00,Wunderground v.1.15,2013-02-18 04:06:00,
2013-02-17 23:12:00,20.6,5.3,30.13,WNW,291,7.0,7.0,51,0.00,,,0.00,Wunderground v.1.15,2013-02-18 04:12:00,
2013-02-17 23:17:00,20.4,5.5,30.13,West,281,5.0,11.0,52,0.00,,,0.00,Wunderground v.1.15,2013-02-18 04:17:00,
2013-02-17 23:23:00,20.4,6.0,30.14,WNW,295,5.0,6.0,53,0.00,,,0.00,Wunderground v.1.15,2013-02-18 04:23:00,
2013-02-17 23:28:00,20.2,5.8,30.14,NW,314,5.0,9.0,53,0.00,,,0.00,Wunderground v.1.15,2013-02-18 04:28:00,
2013-02-17 23:34:00,20.2,5.8,30.14,WNW,301,6.0,8.0,53,0.00,,,0.00,Wunderground v.1.15,2013-02-18 04:34:00,
2013-02-17 23:39:00,20.2,6.2,30.14,WNW,288,6.0,8.0,54,0.00,,,0.00,Wunderground v.1.15,2013-02-18 04:39:00,
2013-02-17 23:45:00,20.2,6.2,30.15,WNW,285,5.0,8.0,54,0.00,,,0.00,Wunderground v.1.15,2013-02-18 04:45:00,
2013-02-17 23:51:00,20.2,6.2,30.15,West,280,6.0,7.0,54,0.00,,,0.00,Wunderground v.1.15,2013-02-18 04:51:00,
2013-02-17 23:56:00,20.3,6.3,30.15,West,270,6.0,8.0,54,0.00,,,0.00,Wunderground v.1.15,2013-02-18 04:56:00,